JCSAT 2A

Last updated on March 31, 2020, 4:58 a.m. UTC

1 27399U 02015A   20090.47410642 -.00000170  00000-0  00000-0 0  9996
2 27399   2.7220  85.8557 0004269 340.7356  19.6578  1.00110205 65863
UTC
Height (km)
Latitude
Longitude
Inclination
Orbital Period
UTC large
Height (km)
Speed (km/s)
/
Latitude / Longitude
Inclination (degrees)
Orbital Period (minutes)
Azimuth
Elevation
Range (km)
Doppler Factor
iOS Compass Heading
iOS Angle

Next 30 passes for location: Hong Kong

Rise time Rise Azimuth (degrees) Set time Set Azimuth (degrees) Duration Max altitude (degrees)

No matching passes for this satellites